Temp
66 65 63 61 60 60 60 59 60 63 67 71 71 72 71 71 71 71 70 70 69 69 70 71 70 71 71 71 71 71 71 71 71 71 70 72 73 73 74 73 74 73 72 72 72 71 71 71 71 71 71 70 70 71 71 72 72 72 72 72 72 72 71 71 72 72 72 73 73
65 64 62 58 57 58 59 59 60 63 67 71 72 72 72 72 72 71 71 71 71 71 71 71 72 72 71 71 70 70 71 71 71 71 71 72 73 73 73 72 73 72 72 72 71 71 70 71 71 71 71 71 71 70 71 72 72 72 71 72 72 72 71 71 71 72 72 73 73
65 64 62 60 59 59 59 59 62 65 68 71 72 73 73 73 72 72 72 72 72 72 72 72 72 72 71 71 70 70 70 71 71 71 71 71 72 72 72 72 72 72 72 71 71 71 71 71 70 70 70 71 70 70 71 72 72 71 71 71 72 72 71 71 72 72 72 72 73
64 64 63 61 60 60 60 60 64 66 68 71 73 74 73 73 73 73 73 73 73 73 73 73 73 73 72 71 70 70 70 70 70 71 71 70 71 71 72 72 71 72 72 72 72 72 71 71 70 70 70 71 71 71 71 71 71 71 71 71 71 72 72 71 72 72 72 72 73
64 64 63 62 61 61 62 64 66 67 69 72 73 73 74 74 74 73 73 73 73 73 73 74 74 73 72 71 70 70 70 70 68 69 70 70 70 71 71 71 71 72 72 72 72 71 71 71 71 71 71 71 71 71 71 72 72 71 71 71 71 71 72 72 72 72 72 72 72
63 64 64 63 63 63 64 66 67 69 71 73 73 73 73 73 73 73 73 73 73 73 73 72 72 72 72 71 70 70 69 70 69 69 70 71 71 71 71 72 72 72 72 72 72 71 71 71 71 71 71 71 72 72 72 72 72 72 71 71 71 71 71 71 72 72 72 71 72
64 64 64 64 64 65 66 68 70 71 72 73 73 73 73 73 73 73 73 73 73 72 72 71 72 72 72 71 70 70 69 69 69 70 70 71 70 71 72 72 72 72 72 72 72 72 71 72 71 70 69 69 70 71 72 72 72 71 71 71 71 71 71 72 71 71 71 71 71
65 65 65 66 66 68 69 71 72 72 72 73 73 73 73 73 73 73 73 73 73 72 72 72 73 73 73 72 71 71 70 70 70 70 70 70 70 71 72 72 73 73 73 73 72 72 71 71 71 70 70 70 70 71 72 72 72 71 71 71 71 71 71 71 71 71 71 71 70
65 66 67 68 69 70 71 72 72 72 72 72 73 73 72 72 73 73 72 72 72 72 73 74 74 74 73 73 72 72 72 72 72 71 70 70 71 71 72 72 73 73 73 73 73 72 72 71 70 70 70 70 70 71 72 72 72 71 71 71 71 71 71 71 72 71 71 70 69
66 67 68 69 70 71 72 73 73 72 72 72 72 72 71 69 71 72 72 72 72 73 73 74 74 74 74 74 73 73 73 73 73 72 72 72 72 72 73 73 73 73 73 73 73 72 72 71 70 70 71 71 71 71 72 72 72 72 71 70 71 72 72 72 72 72 71 70 69
68 69 70 71 71 72 73 73 72 72 72 72 72 72 71 70 71 72 72 73 73 73 74 74 74 74 74 74 74 74 74 74 74 73 73 73 72 73 74 74 74 74 74 74 73 72 72 71 71 71 71 71 71 72 72 72 72 72 72 71 71 72 72 72 72 72 71 71 70
69 70 71 72 73 73 73 73 72 72 72 73 73 73 73 73 73 73 73 74 73 74 74 75 75 75 75 75 75 75 75 75 75 75 74 74 74 74 74 75 75 75 75 75 74 73 72 72 72 72 72 71 71 72 72 72 72 72 72 71 71 71 72 72 72 72 72 71 70
71 72 73 73 74 73 73 73 73 73 73 73 74 74 74 74 74 74 74 74 73 74 75 75 75 75 76 76 76 76 76 76 76 76 75 75 75 75 75 75 75 75 75 75 75 74 73 73 73 73 73 72 72 72 72 72 72 72 71 71 71 71 71 71 72 72 71 71 69
73 73 74 74 74 74 74 74 74 74 74 74 74 74 75 74 74 74 74 74 74 75 75 76 76 75 76 76 77 77 77 77 77 77 76 76 76 76 76 76 76 76 76 76 75 75 74 74 74 74 73 73 73 72 71 71 71 71 71 71 71 71 70 70 71 70 70 69 68
74 75 75 75 74 74 74 74 74 74 74 74 75 75 75 75 74 74 74 75 75 76 76 77 76 76 76 77 77 77 77 77 77 77 77 77 77 77 77 77 77 77 76 76 76 75 75 75 74 74 74 73 73 73 72 71 71 71 71 71 71 70 70 70 70 69 69 68 68
75 75 76 76 75 75 75 75 75 75 75 75 75 76 76 76 75 74 74 75 76 76 77 77 77 77 77 76 77 78 78 78 78 78 77 77 77 77 77 77 77 77 77 77 76 76 75 74 74 74 74 74 74 73 73 72 71 71 71 70 70 70 70 70 70 69 69 68 67
76 76 76 76 76 75 75 75 75 75 76 76 76 76 76 77 76 75 74 75 76 77 77 77 78 78 77 76 77 77 78 78 78 78 78 78 78 78 78 78 78 77 77 77 77 76 76 75 74 74 74 73 73 73 73 72 71 70 70 70 70 70 70 69 69 69 69 68 68
76 76 77 77 76 76 76 76 76 76 77 77 77 77 77 77 77 76 75 75 76 77 77 78 78 78 78 78 77 77 77 78 78 78 78 79 79 79 78 78 78 78 78 78 77 77 76 76 75 74 73 73 73 73 72 72 71 70 70 69 69 69 69 69 69 69 68 68 67
77 77 77 77 77 77 76 76 77 77 78 78 78 78 78 78 78 78 77 77 77 77 78 78 78 78 78 78 78 77 76 78 78 79 79 79 79 79 79 79 79 79 78 78 78 77 77 76 75 74 73 72 72 72 71 71 70 69 69 68 68 68 68 68 68 68 67 67 66
77 77 77 77 77 77 77 77 77 78 78 79 79 79 79 79 79 78 78 78 77 77 78 78 78 78 78 79 79 78 77 77 78 79 79 79 79 80 80 80 79 79 79 78 78 77 77 76 75 74 73 72 71 71 70 69 68 68 67 66 66 66 66 66 66 66 66 66 65
77 78 78 78 78 78 78 78 78 79 79 79 79 80 80 80 79 79 79 78 78 78 78 78 78 79 79 79 79 79 78 77 78 79 79 79 79 79 80 80 79 79 79 78 78 77 77 76 75 74 73 72 70 70 69 68 67 67 66 66 66 66 65 65 65 65 65 65 64
78 78 78 78 78 78 78 78 79 79 79 79 80 80 80 80 80 80 79 79 78 78 78 77 78 78 79 79 79 79 79 78 78 79 79 79 79 79 79 79 79 79 79 78 78 77 76 75 75 74 72 71 70 68 67 66 66 66 66 66 66 65 64 64 64 64 64 63 63
78 79 79 79 79 78 77 78 79 79 79 79 80 80 80 80 80 80 80 79 78 78 78 77 77 78 79 79 79 79 79 78 78 78 78 78 78 78 78 78 78 78 78 78 77 77 76 75 74 73 71 69 68 67 65 65 64 65 65 66 65 64 63 62 63 63 62 62 62
79 79 79 79 79 79 78 79 79 79 79 79 79 80 80 81 81 80 80 80 79 79 79 79 78 78 78 79 79 79 79 79 78 78 78 78 78 78 78 78 77 77 76 74 72 70 70 71 72 71 70 67 66 66 65 64 64 64 64 64 63 62 61 61 60 59 58 58 57
79 79 79 79 79 79 78 78 78 78 78 79 79 80 80 81 81 81 80 80 80 80 80 80 79 78 78 78 79 79 79 79 78 78 77 77 77 77 76 76 76 75 73 71 58 53 53 58 64 68 69 67 66 65 64 64 63 63 62 61 60 59 58 57 57 56 55 55 54
80 80 79 79 79 78 78 78 77 77 77 78 79 79 80 80 81 81 81 80 80 80 80 80 79 78 76 78 78 78 78 78 78 77 77 77 76 76 75 76 75 74 71 64 50 46 46 48 51 56 62 67 65 64 63 63 62 61 61 60 58 56 55 54 54 54 53 53 53
80 79 79 79 79 79 78 78 77 77 77 77 78 78 79 80 80 80 80 80 80 80 80 80 79 76 74 77 78 77 77 76 76 76 76 76 75 75 75 75 74 74 68 53 46 44 45 46 46 49 55 65 65 64 63 62 60 59 59 57 55 54 53 53 53 53 53 52 52
79 80 80 79 79 79 79 78 78 78 78 78 78 77 77 78 78 79 80 80 80 80 79 79 78 77 76 77 77 77 76 76 75 75 75 75 75 75 75 75 74 70 62 48 45 44 45 45 45 46 50 56 62 63 61 61 59 57 56 55 54 54 53 53 52 52 52 52 52
79 79 79 79 79 79 79 79 78 78 78 78 78 77 76 76 77 78 79 79 79 78 78 77 77 76 76 76 76 76 76 76 75 75 74 74 73 73 73 73 73 66 54 41 44 44 44 44 44 45 46 49 57 60 60 60 58 57 56 55 54 53 52 52 52 51 51 52 52
79 79 79 79 79 79 79 79 79 79 79 78 77 76 76 75 75 77 78 78 78 78 77 77 76 76 76 76 75 74 74 74 74 74 73 71 71 71 71 72 72 65 53 40 43 44 44 44 44 44 44 46 52 56 59 59 57 55 54 54 53 53 53 53 52 52 52 52 52
79 79 79 79 79 79 79 79 79 79 79 78 78 77 75 75 75 75 76 77 77 76 76 76 76 76 75 75 74 74 73 73 73 72 71 71 69 70 72 73 71 60 48 40 43 44 44 44 44 44 44 44 50 54 57 57 56 56 55 55 55 54 54 53 52 52 52 52 51
79 79 78 78 78 79 79 79 79 79 78 78 77 76 75 74 74 74 75 75 75 75 75 75 75 75 74 74 74 73 73 73 72 72 71 71 71 71 72 71 66 57 48 41 43 43 44 44 44 44 43 43 48 52 56 56 57 57 56 56 55 54 53 52 52 52 52 52 51
78 77 77 76 77 78 78 78 78 78 77 76 76 75 74 74 74 73 73 73 73 74 75 75 74 74 74 74 74 73 73 72 71 71 70 71 72 72 71 67 64 56 47 40 42 43 43 44 44 43 43 42 47 52 56 57 57 56 55 54 53 52 51 50 49 49 49 49 50
77 76 75 75 76 76 76 76 76 76 75 74 73 73 73 73 72 71 71 71 72 73 74 74 74 74 74 74 73 72 71 69 70 71 71 71 71 69 67 66 62 52 42 39 40 41 42 43 43 43 43 42 48 53 56 56 55 53 52 49 47 45 43 42 42 42 42 43 45
77 76 75 74 74 74 74 74 74 73 72 71 71 71 72 72 71 71 71 70 71 72 73 73 73 73 73 73 72 70 67 64 65 66 67 67 67 66 63 61 53 44 37 38 38 39 40 41 41 41 42 42 48 52 54 53 51 50 47 42 39 38 38 38 38 38 39 39 40
76 75 74 73 73 72 72 71 72 71 71 69 69 69 70 71 71 71 71 69 70 71 72 72 72 71 70 68 66 63 62 62 62 61 60 60 62 61 58 51 45 40 38 38 38 38 39 39 39 40 41 45 49 51 51 50 47 44 41 38 37 37 37 37 36 36 36 37 37
75 74 74 73 72 72 71 71 71 70 69 68 69 69 70 71 71 71 71 69 70 70 70 71 69 67 65 62 60 57 56 56 55 52 50 49 52 51 48 43 41 39 38 37 38 38 38 39 39 40 42 46 48 49 48 46 42 40 38 37 36 36 35 35 35 35 35 35 35
76 75 73 73 72 72 71 70 69 69 69 68 68 69 69 70 70 70 69 67 69 69 68 68 66 63 58 54 49 46 45 45 44 43 42 41 42 41 40 38 38 38 37 37 38 38 38 39 39 40 42 45 48 48 46 42 40 38 37 36 35 35 35 34 34 34 34 34 34
75 74 73 72 72 71 71 70 69 69 69 69 69 69 69 69 69 68 67 65 68 68 67 65 60 55 49 45 43 41 40 40 40 40 39 38 38 38 38 37 37 37 36 37 37 38 38 39 39 40 42 45 47 46 44 40 39 37 36 35 34 34 34 34 34 33 33 33 34
74 74 73 72 72 71 71 70 70 70 69 69 70 69 69 67 66 65 65 65 66 65 61 55 50 45 43 41 40 39 39 38 38 38 38 37 37 37 37 36 36 36 36 36 37 37 38 39 39 40 42 45 45 44 42 40 38 37 35 35 34 34 33 34 33 33 32 32 32
74 73 72 72 72 71 71 70 71 70 70 70 70 69 67 65 64 65 65 66 62 57 52 47 44 42 41 39 39 38 37 36 36 36 36 36 36 36 36 35 35 35 35 36 36 37 37 38 39 40 41 43 43 42 40 39 37 35 34 34 34 33 33 33 33 32 32 32 31
MSLP
1007.06 1007.34 1007.62 1007.94 1008.18 1008.34 1008.54 1008.78 1008.98 1009.06 1008.98 1008.78 1008.78 1008.98 1009.22 1009.50 1009.74 1009.98 1010.22 1010.46 1010.74 1010.94 1011.18 1011.34 1011.62 1011.78 1011.98 1012.22 1012.42 1012.62 1012.82 1012.98 1013.22 1013.38 1013.58 1013.74 1013.86 1013.98 1014.14 1014.26 1014.42 1014.66 1014.90 1015.10 1015.30 1015.50 1015.62 1015.74 1015.90 1016.02 1016.14 1016.26 1016.38 1016.46 1016.50 1016.58 1016.62 1016.70 1016.78 1016.82 1016.90 1016.98 1017.06 1017.14 1017.14 1017.14 1017.18 1017.22 1017.22
1007.18 1007.46 1007.82 1008.18 1008.42 1008.54 1008.74 1008.98 1009.22 1009.26 1009.10 1008.86 1008.82 1008.94 1009.18 1009.42 1009.62 1009.82 1010.10 1010.34 1010.54 1010.78 1011.02 1011.22 1011.46 1011.70 1011.94 1012.18 1012.42 1012.62 1012.78 1012.98 1013.18 1013.38 1013.58 1013.74 1013.86 1013.98 1014.10 1014.30 1014.46 1014.62 1014.90 1015.06 1015.26 1015.50 1015.62 1015.74 1015.86 1015.98 1016.06 1016.18 1016.30 1016.34 1016.42 1016.46 1016.50 1016.62 1016.66 1016.74 1016.78 1016.82 1016.90 1016.98 1017.02 1017.02 1017.06 1017.10 1017.10
1007.30 1007.62 1007.98 1008.30 1008.50 1008.66 1008.90 1009.10 1009.26 1009.30 1009.18 1008.94 1008.86 1008.94 1009.10 1009.30 1009.50 1009.74 1009.94 1010.18 1010.38 1010.62 1010.82 1011.10 1011.34 1011.62 1011.90 1012.18 1012.42 1012.62 1012.78 1012.94 1013.18 1013.34 1013.54 1013.74 1013.90 1014.02 1014.14 1014.34 1014.50 1014.62 1014.82 1015.02 1015.22 1015.38 1015.54 1015.66 1015.78 1015.90 1016.02 1016.10 1016.18 1016.26 1016.34 1016.34 1016.42 1016.50 1016.58 1016.62 1016.66 1016.74 1016.78 1016.82 1016.86 1016.90 1016.94 1016.98 1016.98
1007.42 1007.70 1008.02 1008.30 1008.50 1008.66 1008.86 1009.06 1009.14 1009.22 1009.22 1008.98 1008.86 1008.90 1009.06 1009.22 1009.38 1009.62 1009.82 1010.06 1010.26 1010.50 1010.74 1010.94 1011.22 1011.50 1011.82 1012.10 1012.38 1012.62 1012.78 1012.94 1013.14 1013.34 1013.54 1013.70 1013.90 1013.98 1014.10 1014.26 1014.46 1014.62 1014.78 1014.94 1015.10 1015.26 1015.38 1015.58 1015.66 1015.78 1015.86 1015.94 1016.06 1016.14 1016.18 1016.22 1016.34 1016.38 1016.46 1016.50 1016.54 1016.62 1016.62 1016.66 1016.70 1016.78 1016.78 1016.86 1016.86
1007.50 1007.70 1007.94 1008.22 1008.46 1008.62 1008.82 1008.98 1009.06 1009.14 1009.10 1008.90 1008.82 1008.82 1008.94 1009.10 1009.30 1009.50 1009.74 1009.94 1010.18 1010.34 1010.58 1010.78 1011.06 1011.38 1011.74 1012.02 1012.30 1012.58 1012.78 1012.94 1013.14 1013.34 1013.50 1013.66 1013.82 1013.94 1014.10 1014.22 1014.42 1014.58 1014.70 1014.82 1015.02 1015.14 1015.30 1015.42 1015.58 1015.66 1015.74 1015.78 1015.90 1015.94 1015.98 1016.02 1016.14 1016.22 1016.30 1016.34 1016.38 1016.42 1016.46 1016.46 1016.50 1016.54 1016.62 1016.62 1016.66
1007.50 1007.66 1007.90 1008.18 1008.50 1008.70 1008.86 1008.94 1008.98 1008.98 1008.90 1008.78 1008.70 1008.78 1008.90 1009.06 1009.22 1009.42 1009.62 1009.78 1010.06 1010.26 1010.50 1010.70 1010.98 1011.30 1011.62 1011.90 1012.26 1012.50 1012.74 1012.90 1013.10 1013.26 1013.42 1013.58 1013.78 1013.90 1014.06 1014.18 1014.34 1014.46 1014.62 1014.74 1014.90 1015.06 1015.22 1015.30 1015.42 1015.50 1015.58 1015.62 1015.70 1015.74 1015.78 1015.86 1015.94 1016.06 1016.10 1016.18 1016.18 1016.22 1016.26 1016.30 1016.34 1016.34 1016.42 1016.46 1016.50
1007.46 1007.62 1007.90 1008.18 1008.46 1008.66 1008.78 1008.78 1008.78 1008.74 1008.66 1008.62 1008.62 1008.70 1008.78 1008.94 1009.10 1009.30 1009.50 1009.62 1009.90 1010.18 1010.50 1010.70 1010.94 1011.22 1011.54 1011.86 1012.18 1012.42 1012.62 1012.82 1013.02 1013.22 1013.34 1013.50 1013.62 1013.78 1013.94 1014.06 1014.18 1014.34 1014.50 1014.62 1014.78 1014.90 1015.02 1015.14 1015.26 1015.34 1015.42 1015.50 1015.54 1015.54 1015.58 1015.66 1015.78 1015.82 1015.86 1015.90 1015.94 1015.98 1016.06 1016.06 1016.10 1016.14 1016.22 1016.26 1016.30
1007.54 1007.70 1007.86 1008.06 1008.34 1008.46 1008.50 1008.46 1008.50 1008.50 1008.50 1008.54 1008.62 1008.66 1008.74 1008.86 1009.02 1009.22 1009.42 1009.62 1009.90 1010.18 1010.46 1010.62 1010.86 1011.10 1011.38 1011.70 1012.02 1012.26 1012.50 1012.70 1012.90 1013.10 1013.26 1013.38 1013.54 1013.62 1013.78 1013.90 1014.06 1014.18 1014.30 1014.42 1014.58 1014.74 1014.86 1014.98 1015.06 1015.14 1015.22 1015.34 1015.34 1015.38 1015.42 1015.46 1015.54 1015.62 1015.62 1015.66 1015.70 1015.78 1015.78 1015.86 1015.90 1015.94 1016.02 1016.06 1016.10
1007.54 1007.70 1007.86 1007.98 1008.10 1008.14 1008.10 1008.10 1008.18 1008.26 1008.34 1008.46 1008.50 1008.58 1008.66 1008.78 1008.94 1009.18 1009.42 1009.66 1009.94 1010.18 1010.42 1010.62 1010.78 1011.02 1011.26 1011.50 1011.78 1012.06 1012.30 1012.50 1012.74 1012.90 1013.10 1013.26 1013.38 1013.50 1013.62 1013.78 1013.90 1013.98 1014.10 1014.18 1014.34 1014.50 1014.62 1014.78 1014.90 1014.90 1014.98 1015.06 1015.10 1015.14 1015.18 1015.26 1015.34 1015.38 1015.42 1015.46 1015.50 1015.50 1015.58 1015.62 1015.70 1015.78 1015.82 1015.86 1015.94
1007.42 1007.58 1007.70 1007.78 1007.86 1007.78 1007.78 1007.86 1008.02 1008.14 1008.22 1008.34 1008.42 1008.54 1008.66 1008.86 1009.06 1009.22 1009.46 1009.66 1009.94 1010.18 1010.38 1010.54 1010.74 1010.90 1011.14 1011.34 1011.58 1011.82 1012.06 1012.22 1012.46 1012.66 1012.90 1013.06 1013.22 1013.30 1013.42 1013.54 1013.66 1013.78 1013.90 1013.98 1014.10 1014.26 1014.42 1014.54 1014.66 1014.74 1014.74 1014.78 1014.86 1014.90 1014.94 1015.06 1015.10 1015.14 1015.22 1015.22 1015.26 1015.30 1015.34 1015.38 1015.46 1015.54 1015.62 1015.66 1015.74
1007.22 1007.34 1007.46 1007.50 1007.54 1007.50 1007.54 1007.70 1007.90 1008.02 1008.14 1008.22 1008.38 1008.58 1008.78 1008.94 1009.14 1009.34 1009.50 1009.70 1009.90 1010.18 1010.34 1010.46 1010.62 1010.82 1011.02 1011.22 1011.38 1011.58 1011.78 1012.02 1012.18 1012.42 1012.62 1012.78 1012.90 1013.02 1013.10 1013.22 1013.34 1013.50 1013.58 1013.70 1013.90 1014.06 1014.18 1014.30 1014.38 1014.42 1014.50 1014.58 1014.62 1014.70 1014.74 1014.78 1014.86 1014.90 1014.94 1015.02 1015.06 1015.06 1015.10 1015.18 1015.22 1015.26 1015.34 1015.38 1015.50
1006.98 1007.10 1007.18 1007.22 1007.26 1007.30 1007.42 1007.58 1007.78 1007.94 1008.06 1008.26 1008.46 1008.66 1008.90 1009.06 1009.22 1009.34 1009.50 1009.70 1009.90 1010.06 1010.18 1010.34 1010.50 1010.70 1010.86 1011.02 1011.18 1011.38 1011.58 1011.74 1011.90 1012.10 1012.26 1012.42 1012.58 1012.70 1012.82 1012.90 1013.02 1013.14 1013.26 1013.38 1013.54 1013.74 1013.90 1013.94 1014.06 1014.10 1014.18 1014.30 1014.38 1014.46 1014.46 1014.50 1014.58 1014.66 1014.74 1014.74 1014.82 1014.90 1014.90 1014.90 1014.94 1014.98 1015.02 1015.06 1015.22
1006.70 1006.82 1006.90 1006.94 1007.06 1007.14 1007.30 1007.50 1007.70 1007.90 1008.06 1008.26 1008.50 1008.70 1008.90 1009.06 1009.18 1009.30 1009.50 1009.66 1009.82 1009.94 1010.06 1010.18 1010.34 1010.50 1010.74 1010.90 1011.02 1011.18 1011.30 1011.46 1011.62 1011.78 1011.90 1012.06 1012.18 1012.34 1012.50 1012.58 1012.70 1012.82 1012.90 1013.06 1013.22 1013.38 1013.50 1013.62 1013.66 1013.74 1013.82 1013.94 1014.06 1014.10 1014.18 1014.26 1014.34 1014.38 1014.46 1014.50 1014.62 1014.62 1014.66 1014.66 1014.70 1014.74 1014.78 1014.90 1014.98
1006.34 1006.50 1006.58 1006.70 1006.90 1007.06 1007.22 1007.42 1007.62 1007.82 1008.06 1008.26 1008.38 1008.58 1008.78 1008.98 1009.10 1009.22 1009.38 1009.54 1009.66 1009.78 1009.82 1009.94 1010.18 1010.46 1010.62 1010.70 1010.78 1010.90 1011.06 1011.18 1011.34 1011.46 1011.58 1011.74 1011.86 1011.98 1012.14 1012.26 1012.34 1012.50 1012.62 1012.74 1012.86 1013.02 1013.18 1013.26 1013.34 1013.42 1013.50 1013.62 1013.70 1013.78 1013.90 1014.06 1014.10 1014.18 1014.18 1014.30 1014.34 1014.38 1014.42 1014.46 1014.50 1014.58 1014.66 1014.74 1014.82
1006.06 1006.14 1006.30 1006.50 1006.74 1006.98 1007.18 1007.34 1007.50 1007.70 1007.90 1008.10 1008.22 1008.38 1008.58 1008.78 1008.94 1009.10 1009.22 1009.38 1009.50 1009.50 1009.62 1009.86 1010.18 1010.34 1010.42 1010.50 1010.58 1010.62 1010.78 1010.90 1011.06 1011.18 1011.30 1011.42 1011.50 1011.62 1011.78 1011.90 1012.02 1012.14 1012.26 1012.38 1012.54 1012.66 1012.78 1012.90 1013.02 1013.10 1013.22 1013.30 1013.34 1013.50 1013.62 1013.78 1013.90 1013.94 1013.98 1014.06 1014.10 1014.18 1014.22 1014.30 1014.34 1014.46 1014.54 1014.62 1014.66
1005.74 1005.90 1006.06 1006.34 1006.62 1006.82 1007.02 1007.22 1007.34 1007.50 1007.70 1007.90 1008.02 1008.14 1008.34 1008.50 1008.70 1008.90 1009.06 1009.18 1009.26 1009.34 1009.50 1009.78 1009.94 1010.06 1010.18 1010.26 1010.34 1010.42 1010.50 1010.62 1010.78 1010.86 1011.02 1011.10 1011.22 1011.34 1011.46 1011.54 1011.66 1011.78 1011.94 1012.06 1012.22 1012.34 1012.46 1012.58 1012.70 1012.82 1012.90 1013.02 1013.10 1013.22 1013.34 1013.50 1013.62 1013.74 1013.82 1013.86 1013.90 1013.98 1014.06 1014.10 1014.18 1014.30 1014.38 1014.50 1014.54
1005.50 1005.70 1005.90 1006.10 1006.38 1006.62 1006.78 1006.98 1007.14 1007.30 1007.46 1007.62 1007.74 1007.90 1008.06 1008.18 1008.34 1008.58 1008.78 1008.94 1009.06 1009.14 1009.30 1009.46 1009.62 1009.78 1009.90 1010.06 1010.14 1010.18 1010.30 1010.38 1010.50 1010.62 1010.70 1010.82 1010.90 1011.02 1011.14 1011.26 1011.34 1011.50 1011.62 1011.78 1011.90 1012.02 1012.14 1012.30 1012.46 1012.58 1012.70 1012.82 1012.90 1013.02 1013.14 1013.26 1013.38 1013.50 1013.62 1013.70 1013.78 1013.82 1013.90 1013.94 1014.02 1014.10 1014.18 1014.30 1014.38
1005.34 1005.54 1005.74 1005.90 1006.18 1006.38 1006.62 1006.78 1006.90 1007.06 1007.18 1007.34 1007.46 1007.62 1007.78 1007.90 1008.06 1008.26 1008.50 1008.62 1008.78 1008.90 1009.06 1009.22 1009.34 1009.50 1009.62 1009.78 1009.90 1010.02 1010.06 1010.18 1010.22 1010.34 1010.42 1010.50 1010.58 1010.70 1010.82 1010.90 1011.06 1011.18 1011.30 1011.50 1011.62 1011.74 1011.86 1011.98 1012.18 1012.34 1012.50 1012.66 1012.78 1012.86 1012.94 1013.06 1013.18 1013.30 1013.38 1013.54 1013.62 1013.66 1013.78 1013.78 1013.90 1014.02 1014.10 1014.18 1014.30
1005.22 1005.34 1005.54 1005.74 1005.94 1006.18 1006.34 1006.50 1006.62 1006.74 1006.86 1007.02 1007.14 1007.26 1007.42 1007.62 1007.78 1007.94 1008.18 1008.42 1008.58 1008.74 1008.90 1009.06 1009.14 1009.22 1009.34 1009.50 1009.62 1009.78 1009.86 1009.90 1009.98 1010.06 1010.10 1010.18 1010.30 1010.42 1010.50 1010.62 1010.74 1010.90 1011.02 1011.18 1011.34 1011.50 1011.62 1011.74 1011.90 1012.10 1012.30 1012.46 1012.58 1012.70 1012.82 1012.90 1013.02 1013.14 1013.26 1013.38 1013.50 1013.58 1013.70 1013.78 1013.90 1014.02 1014.10 1014.18 1014.34
1005.02 1005.18 1005.34 1005.50 1005.70 1005.90 1006.06 1006.18 1006.34 1006.46 1006.58 1006.70 1006.82 1006.98 1007.18 1007.34 1007.50 1007.74 1007.98 1008.18 1008.34 1008.50 1008.66 1008.78 1008.90 1008.94 1009.06 1009.18 1009.34 1009.50 1009.62 1009.70 1009.78 1009.82 1009.90 1009.94 1010.06 1010.18 1010.26 1010.34 1010.50 1010.62 1010.78 1010.90 1011.06 1011.26 1011.42 1011.54 1011.66 1011.82 1012.02 1012.22 1012.38 1012.54 1012.70 1012.82 1012.98 1013.10 1013.22 1013.34 1013.46 1013.58 1013.74 1013.82 1013.94 1014.06 1014.18 1014.30 1014.42
1004.82 1004.98 1005.10 1005.30 1005.46 1005.62 1005.78 1005.94 1006.06 1006.18 1006.34 1006.50 1006.62 1006.78 1006.94 1007.14 1007.30 1007.50 1007.70 1007.90 1008.10 1008.30 1008.46 1008.54 1008.62 1008.74 1008.82 1008.94 1009.06 1009.22 1009.34 1009.42 1009.54 1009.62 1009.70 1009.78 1009.86 1009.94 1010.06 1010.14 1010.26 1010.42 1010.54 1010.66 1010.86 1011.02 1011.18 1011.34 1011.50 1011.62 1011.82 1012.02 1012.18 1012.38 1012.58 1012.78 1012.90 1013.06 1013.22 1013.38 1013.50 1013.62 1013.74 1013.90 1014.02 1014.14 1014.22 1014.34 1014.50
1004.62 1004.78 1004.90 1005.06 1005.22 1005.38 1005.54 1005.70 1005.86 1006.02 1006.18 1006.34 1006.46 1006.58 1006.74 1006.90 1007.10 1007.26 1007.42 1007.62 1007.82 1008.06 1008.18 1008.34 1008.42 1008.50 1008.58 1008.70 1008.82 1008.90 1009.06 1009.18 1009.30 1009.42 1009.50 1009.62 1009.70 1009.78 1009.90 1010.02 1010.14 1010.26 1010.42 1010.50 1010.66 1010.82 1010.98 1011.14 1011.34 1011.50 1011.70 1011.90 1012.14 1012.34 1012.50 1012.70 1012.86 1013.02 1013.22 1013.34 1013.50 1013.62 1013.78 1013.90 1014.02 1014.14 1014.22 1014.34 1014.46
1004.38 1004.50 1004.66 1004.82 1004.98 1005.18 1005.34 1005.54 1005.70 1005.90 1006.06 1006.18 1006.26 1006.38 1006.54 1006.70 1006.86 1007.02 1007.18 1007.34 1007.58 1007.78 1007.98 1008.10 1008.22 1008.34 1008.34 1008.42 1008.54 1008.66 1008.78 1008.90 1009.06 1009.22 1009.34 1009.50 1009.62 1009.70 1009.82 1009.94 1010.06 1010.18 1010.34 1010.42 1010.50 1010.66 1010.82 1011.02 1011.22 1011.42 1011.62 1011.86 1012.06 1012.26 1012.50 1012.70 1012.90 1013.06 1013.14 1013.26 1013.42 1013.62 1013.78 1013.90 1013.98 1014.10 1014.18 1014.34 1014.46
1004.14 1004.30 1004.46 1004.62 1004.78 1004.98 1005.22 1005.34 1005.54 1005.74 1005.90 1006.02 1006.14 1006.26 1006.38 1006.50 1006.62 1006.78 1006.98 1007.18 1007.34 1007.54 1007.70 1007.86 1007.98 1008.10 1008.18 1008.26 1008.34 1008.50 1008.62 1008.74 1008.90 1009.06 1009.22 1009.42 1009.58 1009.70 1009.78 1009.90 1010.06 1010.18 1010.26 1010.34 1010.50 1010.62 1010.78 1010.98 1011.14 1011.34 1011.62 1011.82 1012.06 1012.26 1012.50 1012.70 1012.86 1013.02 1013.14 1013.26 1013.38 1013.58 1013.78 1013.90 1014.02 1014.14 1014.30 1014.42 1014.54
1003.94 1004.10 1004.26 1004.42 1004.62 1004.82 1005.02 1005.22 1005.42 1005.62 1005.78 1005.90 1006.02 1006.14 1006.22 1006.34 1006.50 1006.62 1006.78 1006.98 1007.14 1007.30 1007.42 1007.62 1007.74 1007.90 1008.06 1008.18 1008.30 1008.34 1008.50 1008.62 1008.78 1008.94 1009.14 1009.34 1009.50 1009.66 1009.78 1009.90 1010.06 1010.10 1010.18 1010.30 1010.70 1010.94 1011.06 1011.14 1011.22 1011.38 1011.62 1011.86 1012.06 1012.30 1012.50 1012.66 1012.82 1013.02 1013.18 1013.34 1013.50 1013.62 1013.78 1013.94 1014.06 1014.18 1014.34 1014.50 1014.66
1003.78 1003.90 1004.10 1004.30 1004.50 1004.66 1004.90 1005.10 1005.30 1005.46 1005.62 1005.78 1005.90 1006.06 1006.18 1006.26 1006.34 1006.46 1006.62 1006.78 1006.90 1007.06 1007.22 1007.38 1007.54 1007.74 1007.90 1008.14 1008.22 1008.34 1008.46 1008.54 1008.66 1008.82 1009.02 1009.22 1009.42 1009.62 1009.78 1009.90 1009.98 1010.06 1010.18 1010.42 1010.90 1011.10 1011.22 1011.34 1011.46 1011.58 1011.70 1011.90 1012.10 1012.34 1012.50 1012.70 1012.86 1013.06 1013.22 1013.42 1013.58 1013.70 1013.86 1013.94 1014.06 1014.18 1014.34 1014.58 1014.78
1003.62 1003.78 1003.94 1004.14 1004.34 1004.54 1004.78 1004.94 1005.14 1005.34 1005.50 1005.66 1005.82 1005.94 1006.06 1006.14 1006.18 1006.34 1006.46 1006.62 1006.74 1006.90 1007.06 1007.22 1007.38 1007.62 1007.82 1008.02 1008.18 1008.30 1008.42 1008.50 1008.66 1008.78 1008.94 1009.10 1009.34 1009.50 1009.62 1009.78 1009.90 1009.94 1010.18 1010.66 1010.98 1011.18 1011.30 1011.46 1011.62 1011.74 1011.78 1011.86 1012.14 1012.34 1012.54 1012.78 1012.98 1013.18 1013.34 1013.50 1013.62 1013.74 1013.82 1013.90 1014.06 1014.18 1014.34 1014.54 1014.78
1003.50 1003.62 1003.78 1003.98 1004.18 1004.42 1004.58 1004.78 1005.02 1005.22 1005.42 1005.58 1005.70 1005.82 1005.98 1006.10 1006.18 1006.26 1006.34 1006.46 1006.62 1006.78 1006.94 1007.10 1007.26 1007.46 1007.66 1007.86 1008.06 1008.18 1008.34 1008.50 1008.66 1008.78 1008.94 1009.06 1009.22 1009.34 1009.50 1009.62 1009.78 1009.94 1010.22 1010.66 1010.94 1011.18 1011.34 1011.50 1011.70 1011.86 1011.98 1012.06 1012.22 1012.46 1012.66 1012.86 1013.06 1013.26 1013.42 1013.54 1013.62 1013.74 1013.82 1013.94 1014.06 1014.26 1014.46 1014.62 1014.78
1003.34 1003.50 1003.66 1003.90 1004.06 1004.26 1004.42 1004.62 1004.86 1005.06 1005.22 1005.38 1005.54 1005.78 1005.94 1006.10 1006.18 1006.26 1006.34 1006.42 1006.58 1006.74 1006.90 1007.06 1007.22 1007.38 1007.62 1007.82 1008.02 1008.18 1008.34 1008.46 1008.62 1008.78 1008.94 1009.06 1009.22 1009.38 1009.54 1009.62 1009.78 1010.06 1010.46 1010.78 1010.94 1011.18 1011.42 1011.62 1011.82 1012.02 1012.18 1012.30 1012.38 1012.58 1012.78 1012.94 1013.14 1013.30 1013.42 1013.50 1013.62 1013.78 1013.90 1014.06 1014.26 1014.46 1014.62 1014.70 1014.78
1003.22 1003.42 1003.62 1003.78 1003.90 1004.10 1004.30 1004.50 1004.62 1004.82 1005.02 1005.22 1005.46 1005.66 1005.90 1006.06 1006.22 1006.34 1006.38 1006.46 1006.58 1006.70 1006.86 1006.98 1007.18 1007.38 1007.58 1007.78 1007.94 1008.14 1008.34 1008.46 1008.58 1008.74 1008.90 1009.10 1009.30 1009.46 1009.58 1009.74 1009.82 1010.14 1010.62 1010.90 1011.02 1011.22 1011.46 1011.66 1011.90 1012.10 1012.30 1012.46 1012.58 1012.70 1012.86 1012.98 1013.14 1013.30 1013.46 1013.54 1013.70 1013.86 1014.06 1014.22 1014.42 1014.58 1014.70 1014.78 1014.78
1003.10 1003.30 1003.50 1003.62 1003.78 1003.94 1004.10 1004.26 1004.42 1004.62 1004.82 1005.06 1005.30 1005.54 1005.78 1006.02 1006.18 1006.30 1006.38 1006.46 1006.54 1006.66 1006.78 1006.94 1007.18 1007.34 1007.54 1007.74 1007.94 1008.14 1008.30 1008.46 1008.62 1008.78 1008.90 1009.10 1009.34 1009.50 1009.58 1009.66 1009.90 1010.50 1010.94 1011.06 1011.10 1011.30 1011.50 1011.70 1011.90 1012.14 1012.34 1012.50 1012.66 1012.78 1012.86 1012.98 1013.14 1013.30 1013.46 1013.66 1013.86 1014.06 1014.22 1014.42 1014.58 1014.70 1014.78 1014.82 1014.86
1002.98 1003.18 1003.34 1003.50 1003.62 1003.78 1003.90 1004.10 1004.30 1004.50 1004.70 1004.90 1005.18 1005.42 1005.62 1005.90 1006.06 1006.22 1006.38 1006.50 1006.58 1006.70 1006.82 1007.06 1007.22 1007.38 1007.58 1007.78 1007.94 1008.14 1008.30 1008.42 1008.58 1008.70 1008.90 1009.06 1009.22 1009.34 1009.50 1009.74 1010.18 1010.62 1010.94 1011.10 1011.18 1011.34 1011.50 1011.74 1011.90 1012.10 1012.30 1012.46 1012.62 1012.70 1012.78 1012.90 1013.06 1013.30 1013.54 1013.82 1014.06 1014.30 1014.50 1014.62 1014.78 1014.78 1014.82 1014.86 1014.86
1002.86 1003.06 1003.26 1003.42 1003.54 1003.66 1003.78 1003.98 1004.18 1004.38 1004.58 1004.82 1005.06 1005.30 1005.54 1005.78 1006.02 1006.22 1006.38 1006.54 1006.66 1006.82 1006.94 1007.06 1007.22 1007.42 1007.62 1007.78 1007.98 1008.14 1008.22 1008.38 1008.50 1008.66 1008.82 1008.98 1009.18 1009.34 1009.62 1010.06 1010.46 1010.86 1011.22 1011.34 1011.30 1011.34 1011.50 1011.66 1011.86 1012.06 1012.18 1012.38 1012.50 1012.62 1012.74 1012.94 1013.22 1013.54 1013.86 1014.18 1014.42 1014.62 1014.82 1014.94 1015.06 1015.14 1015.22 1015.18 1015.06
1002.74 1002.94 1003.18 1003.34 1003.50 1003.62 1003.78 1003.94 1004.10 1004.30 1004.54 1004.78 1005.02 1005.22 1005.50 1005.74 1005.98 1006.22 1006.46 1006.58 1006.74 1006.86 1006.98 1007.10 1007.26 1007.42 1007.62 1007.74 1007.90 1008.10 1008.26 1008.46 1008.62 1008.78 1008.94 1009.18 1009.38 1009.66 1009.98 1010.34 1011.02 1011.78 1012.18 1012.14 1011.98 1011.78 1011.62 1011.62 1011.78 1011.90 1012.14 1012.42 1012.54 1012.66 1012.90 1013.22 1013.54 1013.90 1014.22 1014.58 1014.94 1015.30 1015.54 1015.70 1015.86 1015.90 1015.90 1015.78 1015.62
1002.58 1002.82 1003.06 1003.26 1003.46 1003.62 1003.78 1003.98 1004.14 1004.34 1004.58 1004.82 1005.06 1005.22 1005.42 1005.62 1005.90 1006.18 1006.38 1006.58 1006.78 1006.90 1007.02 1007.18 1007.30 1007.46 1007.62 1007.78 1007.94 1008.30 1008.66 1008.90 1009.10 1009.30 1009.50 1009.66 1009.90 1010.18 1010.62 1011.10 1011.90 1012.54 1012.74 1012.50 1012.26 1012.06 1012.02 1012.14 1012.22 1012.34 1012.50 1012.74 1012.90 1013.10 1013.34 1013.62 1013.94 1014.26 1014.70 1015.22 1015.58 1015.78 1015.98 1016.18 1016.30 1016.38 1016.34 1016.30 1016.22
1002.46 1002.70 1002.98 1003.22 1003.46 1003.62 1003.86 1004.06 1004.18 1004.38 1004.62 1004.82 1005.06 1005.22 1005.42 1005.62 1005.86 1006.06 1006.30 1006.54 1006.74 1006.90 1007.06 1007.22 1007.38 1007.62 1007.94 1008.30 1008.62 1008.90 1009.14 1009.34 1009.58 1009.90 1010.18 1010.34 1010.46 1010.78 1011.34 1012.06 1012.54 1012.78 1012.86 1012.70 1012.50 1012.22 1012.10 1012.14 1012.34 1012.66 1013.02 1013.26 1013.42 1013.58 1013.78 1014.06 1014.42 1014.82 1015.26 1015.66 1015.98 1016.18 1016.38 1016.58 1016.70 1016.78 1016.82 1016.82 1016.82
1002.34 1002.62 1002.90 1003.18 1003.38 1003.62 1003.86 1004.06 1004.22 1004.42 1004.62 1004.82 1005.02 1005.22 1005.46 1005.66 1005.86 1006.06 1006.26 1006.50 1006.70 1006.90 1007.10 1007.34 1007.66 1008.06 1008.42 1008.82 1009.22 1009.58 1009.82 1010.02 1010.30 1010.70 1011.06 1011.26 1011.38 1011.74 1012.22 1012.70 1012.98 1013.14 1013.22 1013.10 1012.86 1012.58 1012.34 1012.18 1012.34 1012.62 1012.98 1013.34 1013.66 1013.90 1014.14 1014.50 1014.90 1015.30 1015.62 1015.90 1016.18 1016.42 1016.66 1016.86 1017.06 1017.18 1017.22 1017.30 1017.34
1002.22 1002.50 1002.78 1003.10 1003.34 1003.62 1003.82 1004.06 1004.30 1004.50 1004.66 1004.90 1005.06 1005.30 1005.50 1005.74 1005.90 1006.10 1006.30 1006.58 1006.78 1007.06 1007.26 1007.54 1007.90 1008.42 1009.06 1009.78 1010.30 1010.70 1010.98 1011.14 1011.30 1011.54 1011.82 1012.06 1012.34 1012.70 1013.02 1013.26 1013.50 1013.62 1013.58 1013.42 1013.22 1012.90 1012.66 1012.50 1012.46 1012.62 1013.02 1013.46 1013.78 1014.06 1014.42 1014.86 1015.22 1015.54 1015.82 1016.10 1016.38 1016.62 1016.90 1017.14 1017.34 1017.50 1017.62 1017.70 1017.74
1002.10 1002.38 1002.70 1003.02 1003.30 1003.54 1003.78 1004.06 1004.26 1004.50 1004.70 1004.94 1005.18 1005.38 1005.58 1005.82 1006.06 1006.26 1006.50 1006.78 1006.98 1007.22 1007.58 1008.02 1008.62 1009.30 1009.98 1010.62 1011.06 1011.50 1011.78 1012.02 1012.06 1012.18 1012.34 1012.62 1012.90 1013.14 1013.34 1013.58 1013.90 1014.02 1013.98 1013.78 1013.50 1013.22 1012.98 1012.82 1012.74 1012.82 1013.10 1013.50 1013.82 1014.18 1014.66 1015.14 1015.42 1015.70 1015.98 1016.26 1016.54 1016.86 1017.10 1017.34 1017.54 1017.78 1017.90 1018.06 1018.14
1002.02 1002.30 1002.62 1002.90 1003.22 1003.50 1003.74 1003.98 1004.18 1004.46 1004.66 1004.90 1005.18 1005.42 1005.66 1005.94 1006.22 1006.50 1006.78 1007.02 1007.30 1007.74 1008.34 1009.14 1009.90 1010.50 1010.90 1011.18 1011.42 1011.78 1012.14 1012.46 1012.66 1012.78 1012.90 1013.06 1013.22 1013.42 1013.62 1013.90 1014.22 1014.34 1014.34 1014.14 1013.82 1013.54 1013.34 1013.18 1013.10 1013.18 1013.34 1013.66 1014.06 1014.50 1014.90 1015.22 1015.54 1015.86 1016.14 1016.46 1016.70 1016.98 1017.26 1017.54 1017.78 1017.98 1018.18 1018.34 1018.46
1001.90 1002.18 1002.50 1002.82 1003.10 1003.38 1003.66 1003.90 1004.18 1004.42 1004.66 1004.90 1005.18 1005.46 1005.78 1006.10 1006.38 1006.66 1006.90 1007.14 1007.70 1008.54 1009.46 1010.22 1010.82 1011.14 1011.34 1011.58 1011.86 1012.18 1012.54 1012.90 1013.26 1013.46 1013.58 1013.62 1013.74 1013.90 1014.10 1014.38 1014.62 1014.70 1014.62 1014.50 1014.22 1014.02 1013.78 1013.62 1013.54 1013.58 1013.78 1014.06 1014.46 1014.78 1015.14 1015.42 1015.74 1016.06 1016.38 1016.66 1016.90 1017.14 1017.42 1017.74 1017.98 1018.18 1018.42 1018.62 1018.74
Wind_Speed
13 12 10 8 7 6 6 5 5 6 7 8 9 9 9 9 9 9 8 8 8 8 8 8 8 8 9 11 11 10 10 9 9 9 9 9 9 9 9 8 9 9 9 8 8 7 7 7 6 5 4 4 5 6 6 6 7 8 8 8 8 8 9 10 10 11 11 12 9
14 13 12 9 7 6 6 5 5 6 8 8 8 8 9 9 9 9 9 9 9 8 8 8 9 10 10 11 11 10 10 9 10 10 9 10 9 9 9 8 8 9 9 9 9 7 6 7 6 5 5 5 5 6 6 7 7 8 9 10 8 8 8 9 10 11 12 12 10
14 14 13 10 9 7 6 6 7 9 10 9 8 8 9 8 8 8 9 9 10 9 9 8 9 11 12 12 10 10 9 9 10 10 9 9 9 9 9 8 8 9 9 9 9 8 7 8 7 6 5 5 6 6 7 7 7 8 9 10 8 7 7 7 9 10 10 9 10
15 15 14 13 12 11 9 8 10 11 11 9 9 9 9 8 8 8 9 10 11 10 9 9 10 11 11 11 11 10 10 10 10 10 9 9 9 9 9 9 9 9 9 9 9 9 9 9 7 6 6 7 7 7 7 7 8 8 8 8 7 7 7 7 8 8 8 8 10
15 15 14 14 14 12 11 10 12 12 11 10 9 8 8 8 8 9 9 10 10 10 10 11 10 10 11 11 12 11 11 11 10 9 9 9 9 9 10 10 10 10 10 10 10 10 9 10 7 6 6 7 7 7 8 8 9 8 8 7 7 7 8 7 7 7 7 8 8
15 15 15 14 14 13 12 12 15 14 12 10 9 9 9 8 8 9 10 10 10 11 11 12 11 11 11 12 12 11 11 10 9 9 9 10 10 10 10 11 11 11 10 10 11 11 10 10 7 6 6 7 7 8 9 10 9 9 8 8 8 8 8 8 8 8 8 9 10
14 15 15 16 16 15 15 16 16 15 13 10 10 10 10 10 10 11 11 10 10 10 10 10 10 11 12 12 12 11 11 10 9 10 10 10 10 10 11 11 12 12 11 11 11 11 11 10 8 7 6 6 7 8 10 10 10 9 9 9 8 8 8 10 8 8 9 12 13
15 16 16 17 18 18 19 19 16 14 11 9 10 11 11 11 12 12 11 10 10 9 9 9 11 12 13 13 13 12 12 12 11 11 11 10 10 11 12 12 12 12 12 12 12 12 11 10 8 7 7 7 7 8 10 12 12 12 11 11 9 8 8 9 9 9 10 13 14
14 16 18 19 19 20 20 19 16 13 11 10 10 10 10 10 12 12 11 9 9 10 10 9 12 13 14 14 14 13 13 13 13 12 12 11 12 12 12 12 13 13 13 12 12 13 12 10 8 8 8 8 8 9 10 13 14 14 13 11 10 10 10 9 10 11 11 13 13
14 17 18 19 20 20 19 17 14 12 11 11 11 10 9 8 9 10 9 9 9 10 10 10 12 13 13 14 14 13 13 13 13 14 14 13 14 14 14 13 13 13 13 13 12 13 13 10 10 10 10 9 10 11 12 13 14 15 14 10 11 12 12 12 12 13 13 13 13
15 17 18 18 19 18 16 15 13 11 11 10 11 10 9 8 9 9 9 9 10 11 12 11 12 13 13 13 13 13 13 13 13 14 15 15 15 16 15 15 15 15 14 14 13 12 12 11 12 13 13 12 12 13 13 14 15 15 15 12 13 14 15 14 14 13 13 13 14
16 17 18 18 18 16 14 13 11 11 10 10 11 11 10 9 10 10 10 11 11 12 12 12 13 13 12 11 12 13 13 14 14 15 15 16 17 17 17 17 16 16 16 16 14 12 11 12 13 15 16 15 13 12 13 15 15 15 15 15 15 15 15 16 15 14 13 13 14
17 18 18 18 17 15 13 12 11 11 11 11 12 11 11 10 11 11 11 12 11 11 11 12 12 12 12 12 12 13 13 14 15 15 15 16 17 17 18 18 18 17 17 16 15 14 13 14 16 17 17 17 14 13 13 15 15 15 16 16 16 16 16 17 16 15 13 13 13
18 18 18 17 16 14 13 12 11 11 11 13 12 12 11 11 12 12 11 12 11 11 10 10 10 11 12 14 14 14 15 15 16 16 16 16 17 17 18 17 18 18 17 16 16 16 16 16 17 17 18 18 16 15 15 15 15 15 16 16 16 17 17 16 16 15 14 13 13
18 18 17 17 16 14 13 13 11 11 12 13 13 12 12 11 12 12 11 12 12 11 10 10 11 12 14 16 16 16 16 16 16 17 17 17 17 17 18 17 18 18 17 16 16 17 17 18 18 18 18 18 17 17 16 15 15 15 15 16 16 16 16 15 15 14 13 13 13
18 17 17 17 16 15 13 13 11 11 12 12 13 12 12 11 12 12 12 13 12 11 11 13 14 14 14 16 16 17 17 16 17 17 17 17 17 18 18 18 18 18 18 18 17 17 17 18 17 17 17 17 17 16 16 16 15 15 16 16 16 15 15 15 15 14 14 14 14
17 17 17 17 17 16 15 13 11 11 12 13 13 13 12 12 11 12 13 14 13 13 14 16 15 15 14 15 15 16 16 16 16 17 17 17 17 18 18 18 18 18 18 18 18 18 18 17 16 16 16 16 16 16 16 16 15 15 15 16 15 15 15 15 14 14 14 14 14
17 17 17 17 17 17 16 15 13 13 13 14 14 14 13 13 13 13 14 15 15 15 16 17 16 15 15 15 15 14 14 15 16 16 16 17 17 18 18 18 17 17 17 18 18 18 18 18 17 16 15 15 15 15 15 15 14 15 15 15 15 15 15 14 14 13 13 13 13
16 17 17 17 17 17 17 16 15 15 15 15 15 15 14 14 14 14 14 15 16 16 17 17 16 16 16 16 15 14 14 15 16 17 17 17 17 17 17 17 17 17 17 17 17 17 17 17 17 16 15 15 15 14 14 14 13 13 13 13 13 13 13 12 12 11 11 11 10
17 17 17 17 17 17 17 17 16 16 15 15 15 16 16 16 16 15 15 16 16 17 17 17 17 16 16 16 16 16 15 14 16 17 17 17 17 17 17 17 17 17 16 16 16 16 16 16 16 15 15 15 15 14 14 13 12 11 11 10 10 10 10 10 9 9 9 9 8
17 17 17 17 17 17 17 17 16 16 16 15 16 16 16 16 16 16 16 16 16 17 17 17 17 17 17 17 17 17 16 13 15 16 16 16 16 17 16 16 16 15 15 15 15 15 15 15 15 15 14 14 14 13 13 12 11 11 10 9 8 8 8 8 8 9 9 9 8
17 17 17 17 17 17 17 16 16 16 15 15 15 16 16 16 16 16 16 15 16 16 17 17 17 17 17 17 17 16 15 13 14 15 15 14 15 15 14 14 14 14 14 14 14 14 15 14 14 14 13 12 12 11 10 10 10 11 11 10 9 8 8 8 8 9 9 9 9
16 16 16 16 17 17 16 16 16 15 15 15 15 15 15 15 16 16 16 15 15 16 16 16 16 16 17 16 16 16 15 14 14 14 14 13 13 13 13 12 13 13 13 12 13 13 13 13 13 12 11 10 9 9 8 8 9 9 10 11 10 9 8 8 9 9 9 9 8
17 16 15 14 16 16 16 15 15 15 15 15 15 15 15 15 15 15 15 16 15 16 16 14 14 15 15 15 15 15 15 15 14 14 13 13 12 12 12 11 11 12 11 9 8 8 8 8 9 9 9 7 7 7 7 8 8 9 9 9 9 8 8 8 8 7 6 6 5
17 16 15 14 15 16 15 15 15 15 15 15 15 15 15 15 15 15 15 16 16 16 16 15 14 14 14 14 14 14 14 14 14 14 13 13 12 12 11 10 10 9 8 6 3 3 3 3 4 5 6 6 6 6 6 7 7 7 7 7 7 7 7 7 7 6 5 4 4
16 16 16 15 15 15 15 15 15 15 15 15 15 15 15 15 15 15 15 15 15 16 15 15 14 13 12 12 13 13 13 12 12 12 12 12 12 12 11 10 9 8 6 3 4 5 5 4 3 3 4 5 5 5 5 5 6 6 6 6 6 6 6 7 7 7 6 6 7
16 16 16 15 15 15 15 15 15 15 15 14 15 15 14 14 13 14 15 15 15 15 14 14 13 12 11 11 12 13 13 11 11 11 11 11 12 12 12 10 9 7 5 4 7 8 7 7 6 5 4 5 5 5 5 5 5 5 6 6 6 7 7 8 8 8 8 8 10
15 15 15 15 15 15 15 15 15 15 15 15 15 14 14 13 13 14 14 14 14 13 12 12 11 10 9 9 11 12 12 11 11 10 11 11 12 12 12 10 9 6 5 9 10 10 9 8 7 6 5 4 4 4 4 4 5 5 5 6 7 7 8 8 7 7 7 9 10
15 15 15 15 15 15 15 15 16 16 15 15 15 14 13 13 13 13 13 13 13 12 11 9 8 8 8 9 10 11 11 12 11 10 10 11 11 11 10 9 9 6 7 12 12 11 11 10 9 8 6 4 3 3 3 4 5 5 5 6 6 6 6 6 5 6 7 8 9
15 15 15 15 15 15 15 15 16 16 15 14 14 14 13 13 13 13 13 13 12 11 10 8 8 8 9 9 9 9 9 10 9 9 9 9 9 9 9 9 8 4 7 12 13 12 12 11 10 9 7 6 4 3 4 4 5 5 5 5 6 6 6 6 7 7 7 7 8
15 15 15 15 15 16 16 16 15 15 15 14 15 15 14 14 14 13 13 12 11 10 9 8 9 9 9 9 8 8 9 9 9 8 8 8 8 9 9 10 4 5 8 11 12 12 12 11 11 10 9 8 6 5 5 6 6 5 5 5 5 6 6 5 6 7 8 8 8
15 15 15 15 16 16 16 15 15 15 15 15 15 15 14 14 14 13 12 11 10 9 9 9 9 9 9 9 9 9 9 9 9 9 9 9 9 10 9 5 6 7 8 11 12 12 12 11 11 11 11 11 8 7 7 6 6 5 4 4 3 4 4 4 4 6 7 9 9
16 15 15 15 15 15 15 15 15 15 14 14 14 14 14 14 13 12 11 10 9 9 9 9 9 9 9 9 9 9 9 9 9 9 8 9 9 8 6 6 7 6 5 6 9 11 12 13 12 12 13 13 9 8 7 5 3 1 1 2 4 6 7 7 8 8 8 8 7
16 16 15 15 15 15 14 13 13 13 13 12 12 12 13 12 12 11 10 9 8 8 8 8 8 8 8 9 9 8 5 2 2 3 4 4 5 6 6 7 9 10 11 8 3 2 5 8 10 11 12 12 8 5 3 1 1 4 6 9 11 12 13 14 13 13 13 13 11
16 16 15 15 14 13 12 11 10 10 10 9 9 10 11 11 11 11 10 9 9 8 8 8 7 7 5 4 2 3 6 8 8 8 7 6 7 8 9 12 13 16 17 15 11 8 5 3 3 3 4 4 2 1 2 4 5 8 11 13 13 14 14 14 13 13 13 13 14
16 15 15 14 13 11 9 8 8 8 8 8 8 9 10 11 11 11 10 10 10 10 9 8 6 4 5 8 9 10 10 11 11 12 11 10 9 10 13 15 15 17 18 18 14 10 7 5 5 4 3 2 2 3 4 6 8 11 13 13 13 13 14 13 13 13 13 13 14
15 15 14 14 13 12 10 8 8 8 7 7 8 9 10 11 11 10 10 10 10 10 9 8 7 9 11 13 13 13 13 14 14 15 15 14 14 15 15 15 15 16 17 19 16 12 8 5 6 6 6 4 4 4 5 7 8 10 12 12 12 12 12 12 13 14 15 15 15
15 14 14 13 13 12 11 9 8 8 8 8 8 9 9 9 9 8 8 7 8 8 8 9 11 13 15 16 16 16 17 16 17 17 16 17 16 16 15 14 14 14 16 18 17 14 9 6 7 8 7 5 5 5 6 7 8 9 10 10 11 11 11 10 10 12 15 17 18
14 14 13 13 13 12 11 10 9 9 9 9 9 9 9 8 6 6 5 4 6 7 8 11 14 16 17 16 16 16 17 17 17 17 17 16 16 15 15 15 14 14 15 18 18 16 13 9 9 9 8 6 6 6 7 7 8 9 10 10 10 10 11 10 10 11 13 18 21
13 13 13 12 12 12 12 12 11 10 9 10 10 10 9 7 7 7 7 7 9 10 13 16 17 16 15 15 15 16 17 17 17 17 16 16 16 16 16 15 14 14 16 19 21 20 18 14 11 9 7 7 7 7 7 7 9 9 10 9 9 9 9 9 9 10 11 14 17
13 12 12 12 12 12 13 13 12 11 10 10 10 9 9 9 9 9 9 10 13 14 15 15 15 15 14 14 15 16 17 18 17 17 16 16 16 16 16 15 15 15 17 20 22 23 22 20 17 14 11 8 8 8 7 7 9 10 10 9 8 8 8 9 9 9 10 11 12
Wind_Direction
142 142 140 136 133 130 129 130 146 165 176 179 166 160 159 159 158 158 158 159 161 162 163 163 164 164 164 165 167 170 171 168 165 166 168 171 171 170 169 168 165 164 166 172 170 173 178 182 181 183 188 191 196 200 204 206 208 210 212 213 214 216 219 221 224 225 224 225 226
143 142 140 136 133 131 131 136 155 172 182 184 170 163 161 161 160 159 160 163 164 164 163 162 164 164 163 164 166 168 170 168 166 167 169 172 174 173 172 171 171 170 171 176 174 175 180 186 187 190 192 193 199 203 206 208 208 211 214 215 216 217 219 222 225 227 228 228 228
145 145 145 143 142 140 142 151 165 175 181 184 174 167 163 163 161 162 163 165 165 165 164 162 164 164 163 162 165 167 169 169 168 168 170 173 177 177 177 176 179 179 178 179 180 180 183 188 191 194 197 198 200 203 206 209 209 212 215 217 218 218 220 222 225 226 228 229 229
150 150 150 150 150 151 154 162 169 174 179 185 176 169 165 164 164 164 164 164 165 165 165 164 164 164 163 163 165 167 170 172 171 171 172 174 179 181 182 181 184 185 185 185 186 187 187 188 192 198 203 204 205 206 207 208 209 211 214 217 219 220 221 223 223 224 226 229 229
155 154 154 154 155 157 161 168 171 175 180 184 177 171 167 165 165 165 165 165 166 166 165 164 163 163 164 163 164 166 170 173 173 174 175 178 182 185 186 186 187 189 191 190 191 192 192 191 195 200 205 208 207 209 209 209 210 211 213 216 219 221 222 223 223 223 224 226 227
156 155 154 154 157 162 167 173 175 178 182 184 178 172 168 165 166 166 166 164 163 162 163 164 163 163 163 162 164 166 170 173 175 178 181 183 185 188 190 192 192 193 195 195 196 196 196 196 199 203 206 210 213 214 213 212 212 213 214 216 218 220 222 223 223 223 223 224 225
157 155 155 157 162 168 174 176 178 181 183 182 178 173 167 163 163 163 162 159 157 158 161 164 166 165 164 163 165 168 171 174 178 183 186 188 189 191 194 196 196 197 198 199 199 199 200 201 204 205 206 208 214 216 216 214 215 216 217 217 217 218 220 222 223 223 224 225 225
160 160 161 162 168 174 178 178 179 180 181 178 175 170 164 160 158 158 156 154 155 158 163 167 169 168 167 167 168 171 174 178 181 185 189 191 192 195 198 199 201 202 202 202 201 201 201 203 206 209 209 209 214 216 216 216 216 218 220 221 220 219 219 221 222 223 224 225 225
166 167 168 170 175 179 180 177 177 177 175 172 169 164 159 155 154 153 153 154 157 161 166 171 172 172 171 170 172 175 178 182 184 187 191 194 196 199 201 203 204 205 205 205 204 203 203 204 208 211 212 212 214 216 217 216 218 219 222 224 224 222 221 221 222 223 224 226 226
172 172 173 175 179 181 179 174 173 171 169 165 162 158 154 151 152 153 155 158 160 165 170 174 175 175 175 175 176 179 182 186 188 190 193 196 199 202 204 205 206 207 207 207 206 205 205 206 209 213 215 216 218 219 218 217 219 220 222 224 226 226 226 224 223 223 224 225 226
176 175 176 177 179 178 175 169 167 167 166 162 160 158 157 157 156 158 160 163 165 170 174 176 179 180 181 181 182 183 186 189 191 193 195 199 201 204 206 208 208 209 209 208 206 206 207 208 211 214 216 217 219 221 221 219 221 222 223 225 227 229 229 228 226 225 225 226 226
177 176 176 176 175 173 169 165 164 166 167 165 164 164 165 167 166 166 168 169 171 174 177 179 181 184 186 188 189 189 190 192 194 196 198 201 203 205 208 210 210 211 211 209 207 207 209 211 214 216 217 217 219 220 222 221 222 223 225 226 227 229 231 231 229 228 227 226 226
176 175 174 173 171 170 168 165 165 168 171 173 172 171 172 174 174 174 175 175 177 179 181 180 182 186 192 197 196 195 195 196 198 199 201 202 204 207 209 211 212 213 213 212 210 209 210 213 215 217 218 218 218 220 221 222 223 224 225 227 228 229 231 232 231 231 230 230 229
175 173 172 169 170 170 171 170 170 173 176 179 178 177 176 178 180 181 181 181 184 185 184 181 184 192 199 203 202 201 200 200 201 202 204 205 206 208 209 212 213 214 214 214 213 212 213 215 217 219 220 220 220 220 220 222 224 226 227 228 229 230 231 233 233 233 233 233 232
174 172 170 169 171 173 175 176 176 177 179 182 182 180 179 180 183 185 186 188 189 190 189 188 194 201 205 206 206 205 204 204 205 206 207 208 208 209 211 212 213 214 215 215 215 215 216 217 219 220 221 222 222 221 221 221 224 226 228 230 231 232 232 233 233 233 234 235 235
173 172 172 171 173 175 178 180 180 180 181 183 183 183 183 183 184 187 189 192 193 194 195 198 201 203 205 207 208 208 208 208 208 209 209 210 211 211 212 213 214 215 216 216 217 217 218 219 220 222 223 224 225 224 223 222 224 226 229 231 233 233 234 234 234 233 234 234 235
174 174 174 174 175 177 179 181 182 182 183 184 185 186 186 187 187 189 192 195 197 199 200 201 202 203 204 205 207 209 210 210 210 211 212 213 213 214 214 215 216 216 217 217 218 218 219 219 220 222 224 226 227 227 226 225 225 226 228 230 232 234 235 235 235 235 235 234 234
177 177 177 177 177 179 180 182 184 185 185 186 187 189 190 191 191 192 194 197 200 201 202 203 204 204 204 204 205 208 210 212 212 213 214 215 216 216 217 217 218 218 218 219 219 220 220 220 220 220 222 224 227 228 229 228 228 227 228 230 232 234 236 237 237 237 237 236 235
179 180 180 180 180 181 182 184 186 187 188 189 190 191 193 194 194 194 195 197 200 202 203 204 205 206 206 205 204 206 209 213 214 216 216 217 218 219 220 220 220 220 220 221 221 222 222 222 221 220 220 222 224 226 228 229 230 230 230 231 233 235 236 238 238 238 239 238 236
181 182 182 183 183 184 185 187 189 190 191 192 193 194 194 195 196 196 195 196 198 201 204 206 207 207 207 206 206 207 208 212 215 217 219 220 221 222 223 223 223 223 223 223 223 223 224 224 224 222 221 221 222 224 226 227 229 231 232 234 235 236 236 236 236 237 238 237 234
183 184 184 185 186 187 188 189 191 193 193 194 195 195 195 196 197 197 197 196 197 200 204 207 208 209 209 209 209 209 209 211 215 218 221 222 223 224 225 226 226 226 226 225 225 225 225 226 226 225 223 222 222 223 224 225 227 229 231 234 235 234 232 229 230 232 233 233 231
185 186 187 187 188 189 190 191 193 194 195 196 196 197 197 197 197 198 198 197 197 199 203 206 209 210 211 211 212 211 211 211 214 218 221 223 224 226 227 228 229 229 229 228 227 227 226 226 226 225 224 223 221 220 221 222 225 228 230 231 230 227 224 222 224 226 227 229 228
187 188 189 190 191 192 192 193 195 196 197 198 198 199 199 199 199 199 199 199 198 199 202 205 209 212 213 214 214 215 214 214 214 216 218 221 224 225 227 228 230 231 231 231 230 229 228 227 226 224 223 221 219 218 217 218 222 226 229 229 225 221 217 217 221 224 226 227 227
190 190 191 192 193 193 194 195 196 197 199 200 201 202 202 202 202 201 201 201 201 201 202 203 207 211 214 217 218 218 218 217 216 215 216 217 220 223 225 227 229 231 232 232 233 232 229 227 224 221 218 214 214 213 213 213 218 222 226 227 222 217 213 214 218 220 223 225 229
192 192 192 193 194 194 195 196 197 199 200 202 203 204 205 205 205 204 204 204 204 204 204 205 205 208 211 216 219 220 221 221 219 217 215 214 216 218 222 225 227 230 232 230 218 197 189 197 208 210 208 203 205 206 209 210 214 215 217 217 214 210 208 210 212 215 219 227 235
193 193 194 194 194 194 195 197 198 199 201 202 204 205 206 207 207 207 207 206 206 206 206 206 205 205 207 211 215 219 221 223 222 221 218 215 214 215 217 221 223 225 223 204 134 124 124 123 138 165 184 191 193 196 199 202 204 205 206 206 204 204 205 209 212 213 216 223 233
194 194 194 194 194 195 195 196 198 199 201 203 205 206 208 209 210 210 210 209 208 208 207 208 206 204 204 207 211 214 217 219 221 222 222 220 218 217 217 219 221 220 206 145 128 125 124 121 121 129 150 176 183 187 191 192 190 194 199 201 204 207 210 215 217 218 221 228 236
195 195 195 194 195 195 196 196 197 199 201 203 205 206 208 210 213 213 213 212 210 209 208 208 206 204 202 205 209 211 213 215 216 219 222 223 224 223 222 222 221 209 168 132 132 130 127 124 122 121 128 153 168 175 179 184 186 193 200 206 211 215 218 220 222 226 232 240 245
196 196 196 196 196 196 196 197 198 199 200 202 203 205 207 210 213 215 216 215 212 210 208 206 204 202 202 204 207 209 211 213 214 216 219 223 225 227 228 228 227 198 144 128 132 131 128 125 124 124 125 131 144 161 177 192 199 204 209 213 215 217 219 222 228 235 242 249 253
197 197 198 198 198 198 198 198 198 199 199 200 201 202 204 207 211 214 216 216 214 211 208 204 203 203 203 204 205 207 210 212 214 215 217 220 223 226 228 228 231 187 123 127 129 129 128 128 130 133 136 141 149 169 191 205 208 210 212 217 219 222 226 231 238 244 250 256 259
197 198 199 200 200 200 200 199 199 199 199 199 199 200 201 203 207 211 214 216 215 213 209 205 204 204 204 202 203 206 210 213 214 214 215 216 219 222 224 226 198 124 115 130 128 129 132 135 140 147 154 161 173 191 206 212 215 216 218 223 229 233 239 246 252 255 257 258 260
199 200 201 202 203 203 202 201 200 200 199 199 199 199 199 201 203 206 210 214 215 213 210 207 205 205 204 203 205 208 212 214 215 215 215 214 215 218 215 191 124 120 131 138 136 137 141 146 153 161 168 175 186 200 212 217 220 224 234 247 264 275 283 285 280 277 275 272 267
199 200 202 203 204 205 204 203 202 201 200 199 199 198 199 199 199 201 204 208 211 212 211 208 206 206 207 208 210 214 217 219 219 217 215 212 210 200 175 123 106 97 101 129 139 147 153 160 166 173 180 185 193 205 215 220 220 222 20 21 16 10 5 360 359 353 344 333 318
200 200 201 203 205 206 205 204 202 201 199 198 197 197 197 196 194 194 195 198 203 208 211 211 209 210 212 215 217 217 216 211 194 185 179 176 158 137 116 97 71 43 24 10 21 138 158 166 176 183 188 191 198 208 216 208 68 60 55 51 45 42 40 37 33 28 22 17 19
199 199 200 202 203 204 204 203 201 198 195 191 190 190 191 190 188 187 187 190 195 202 207 211 212 212 214 221 206 113 86 76 76 75 75 81 93 93 81 65 49 30 15 3 358 354 344 299 258 223 203 192 194 155 67 62 62 64 64 62 56 52 48 45 41 36 33 33 39
198 198 198 200 200 200 200 199 197 194 189 183 180 181 183 184 183 183 184 186 192 197 201 203 194 160 112 90 80 75 74 75 70 61 52 46 57 64 62 52 38 23 12 3 360 359 1 8 16 22 29 42 53 62 67 67 70 72 74 74 69 64 59 54 49 45 43 43 47
198 197 197 197 198 197 197 195 193 189 182 175 172 174 176 179 181 183 184 185 190 192 189 177 141 110 91 77 67 59 55 56 59 56 49 41 44 49 51 45 34 23 13 5 3 4 12 40 69 81 86 89 93 89 83 80 81 83 83 80 75 71 66 63 57 54 51 51 52
197 196 195 194 195 194 192 189 186 181 175 168 166 167 171 176 180 180 179 177 180 176 162 139 113 94 80 70 63 56 53 54 58 60 59 54 53 54 53 49 38 28 19 13 12 13 22 55 91 104 109 115 115 106 96 92 93 92 88 84 79 76 72 70 65 61 58 56 55
195 193 191 190 191 190 187 183 180 175 170 165 164 165 166 165 161 152 141 132 142 136 120 98 83 77 75 76 74 70 65 62 63 65 66 64 62 60 58 55 45 35 27 23 23 25 31 51 83 100 109 115 113 106 101 101 99 95 92 88 85 81 77 75 71 67 63 60 58
189 187 185 185 185 184 183 181 180 176 170 167 168 165 157 142 128 119 114 113 106 93 82 76 74 76 79 81 79 75 70 65 62 62 64 65 63 61 59 56 49 41 35 32 32 33 36 42 56 72 87 98 98 99 100 102 98 95 92 90 88 85 82 78 75 72 67 63 60
183 180 179 179 179 179 180 181 181 178 174 172 167 157 142 128 125 124 121 110 93 83 79 80 83 84 83 81 79 76 73 68 63 61 61 62 61 60 58 56 52 46 41 38 39 39 40 42 46 52 62 80 88 92 94 95 93 91 90 89 88 87 85 82 78 73 69 65 62